Location: NJAA Observatory
(40.6819°N, 74.8979°W)
Time: 09:43:44
(UTC-04:00)

Cosmos 2237 Rocket - Visible Passes

Search period start: 26 June 2016 00:00
Search period end: 06 July 2016 00:00
Orbit: 834 x 851 km, 71.0° (Epoch: 26 June)

Date Brightness Start Highest point End Pass type
(mag) Time Alt. Az. Time Alt. Az. Time Alt. Az.
26 Jun 3.8 01:00:55 10° NW 01:05:02 21° W 01:05:04 21° W visible
26 Jun 2.6 23:01:02 10° NNW 23:06:37 52° ENE 23:08:42 35° ESE visible
27 Jun 3.7 00:46:00 10° NW 00:50:14 22° W 00:50:31 22° WSW visible
27 Jun 2.7 22:46:14 10° NNW 22:51:47 49° ENE 22:54:11 31° ESE visible
28 Jun 3.7 00:31:05 10° NW 00:35:28 23° W 00:36:00 23° WSW visible
28 Jun 2.7 22:31:26 10° NNW 22:36:57 47° ENE 22:39:42 27° ESE visible
29 Jun 3.6 00:16:11 10° NW 00:20:40 24° WSW 00:21:31 23° WSW visible
29 Jun 2.8 22:16:38 10° NNW 22:22:07 45° ENE 22:25:15 24° ESE visible
30 Jun 3.6 00:01:17 10° NW 00:05:52 25° WSW 00:07:04 24° WSW visible
30 Jun 2.9 22:01:51 10° N 22:07:17 43° ENE 22:10:50 20° ESE visible
30 Jun 3.6 23:46:24 10° NW 23:51:05 27° WSW 23:52:40 23° SW visible
01 Jul 2.9 21:47:03 10° N 21:52:27 41° ENE 21:56:27 17° ESE visible
01 Jul 3.6 23:31:31 10° NW 23:36:17 28° WSW 23:38:17 23° SW visible
02 Jul 3.0 21:32:17 10° N 21:37:37 39° ENE 21:42:06 14° SE visible
02 Jul 3.6 23:16:39 10° NW 23:21:30 30° WSW 23:23:57 21° SW visible
03 Jul 3.0 21:17:29 10° N 21:22:47 38° ENE 21:27:48 11° SE visible
03 Jul 3.5 23:01:45 10° NW 23:06:42 31° WSW 23:09:39 20° SSW visible
04 Jul 3.1 21:02:42 10° N 21:07:57 36° ENE 21:13:09 10° SE visible
04 Jul 3.5 22:46:53 10° NW 22:51:55 33° WSW 22:55:24 17° SSW visible
05 Jul 3.5 22:32:01 10° NW 22:37:07 34° WSW 22:41:11 15° SSW visible
